Location: Buckland
(65.9785°N, 161.1281°W)
Time: 21:18:50
(UTC+00:00)

PRISM - Pass Details

Date: 26 January 2021
Orbit: 565 x 584 km, 98.2° (Epoch: 06 March)

Event Time Altitude Azimuth Distance (km) Brightness Sun altitude
Rises 15:00:01 0° 21° (NNE) 2,791 ? -28.6°
Reaches altitude 10° 15:02:12 10° 16° (NNE) 1,892 ? -28.4°
Enters shadow 15:03:40 21° 9° (N) 1,322 ? -28.3°
